Terminal Aerodrome Forecast
Issued by NWS

Home | Current Version | Previous Version | Text Only | Print | Product List | Glossary On
Versions: 1 2 3 4 5 6 7 8 9 10 11 12 13 14 15 16 17 18 19 20
000
FTUS41 KALY 302200 AAB
TAFPSF
TAF AMD
KPSF 302217Z 3022/3118 30014G28KT P6SM VCSH SCT030 OVC045
      TEMPO 3022/3024 2SM -SN BR OVC020
     FM310000 30012KT P6SM SCT025
     FM310300 30011KT P6SM SKC
     FM311200 31012G22KT P6SM SKC=

USA.gov is the U.S. government's official web portal to all federal, state and local government web resources and services.